Location: Moscow Pond
(43.6842°N, 73.2366°W)
Time: 22:12:20
(UTC+00:00)

FengYun 1-2 T - Pass Details

Date: 08 November 2025
Orbit: 845 x 879 km, 98.8° (Epoch: 05 December)

Event Time Altitude Azimuth Distance (km) Brightness Sun altitude
Rises 09:57:16 0° 11° (N) 3,438 7.4 -18.5°
Reaches altitude 10° 09:59:38 10° 9° (N) 2,502 6.7 -18.1°
Maximum altitude 10:05:09 68° 288° (WNW) 930 4.2 -17.1°
Drops below altitude 10° 10:10:41 10° 206° (SSW) 2,508 6.5 -16.1°
Sets 10:13:04 0° 204° (SSW) 3,446 7.2 -15.7°
